Location: Blandford
(50.8667°N, 2.1667°W)
Time: 03:32:49
(UTC+00:00)

CARTOSAT-1 - Pass Details

Date: 09 April 2020
Orbit: 616 x 619 km, 97.8° (Epoch: 26 May)

Event Time Altitude Azimuth Distance (km) Brightness Sun altitude
Exits shadow 22:16:37 41° 260° (W) 907 4.5 -26.2°
Maximum altitude 22:16:41 41° 262° (W) 907 4.5 -26.2°
Drops below altitude 10° 22:20:48 10° 333° (NNW) 1,998 7.2 -26.6°
Sets 22:23:07 0° 341° (NNW) 2,910 8.3 -26.7°
